Location: Tamazert
(32.6352°N, 5.2072°W)
Time: 13:46:32
(UTC+00:00)

Tiros 1 despin weight - Pass Details

Date: 08 October 2022
Orbit: 590 x 637 km, 48.2° (Epoch: 25 November)

Event Time Altitude Azimuth Distance (km) Brightness Sun altitude
Rises 18:09:36 0° 317° (NW) 2,863 ? -3.5°
Reaches altitude 10° 18:12:53 10° 342° (NNW) 1,970 ? -4.2°
Maximum altitude 18:15:22 14° 16° (NNE) 1,704 ? -4.8°
Drops below altitude 10° 18:17:53 10° 49° (NE) 1,985 ? -5.3°
Enters shadow 18:19:38 - 65° (ENE) 2,420 ? -5.7°
Sets 18:21:13 0° 74° (ENE) 2,902 - -6.0°
